DW0677 Weather Reports


Display with metric or nautical units.
time (UTC)temp
F
wind
direction
speed
MPH
gust
MPH
rain 1hr
in
rain 24hr
in
rain mn
in
humidity
%
barometer
mb
20210729063835 73 294 0.0 1.0 0.00 0.00 0.00 60 1016.6
20210729063336 74 294 0.0 0.0 0.00 0.00 0.00 60 1016.7
20210729062835 74 294 0.0 1.0 0.00 0.00 0.00 59 1016.6
20210729062336 74 294 0.0 1.0 0.00 0.00 0.00 59 1016.5
20210729061839 74 294 0.0 0.0 0.00 0.00 0.00 59 1016.5
20210729061336 75 294 0.0 0.0 0.00 0.00 0.00 59 1016.5
20210729060841 75 294 0.0 0.0 0.00 0.00 0.00 59 1016.5
20210729060340 75 294 0.0 0.0 0.00 0.00 0.00 58 1016.5
20210729055828 76 294 0.0 0.0 0.00 0.00 0.00 57 1016.5
20210729055408 76 294 0.0 0.0 0.00 0.00 0.00 56 1016.5
20210729054842 76 294 0.0 0.0 0.00 0.00 0.00 57 1016.5
20210729054353 76 294 0.0 2.0 0.00 0.00 0.00 56 1016.4
20210729053827 77 294 0.0 2.0 0.00 0.00 0.00 56 1016.4
20210729053327 77 294 0.0 0.0 0.00 0.00 0.00 56 1016.3
20210729052828 77 294 0.0 0.0 0.00 0.00 0.00 56 1016.3
20210729052331 78 294 0.0 1.0 0.00 0.00 0.00 56 1016.3
20210729051828 78 294 0.0 2.0 0.00 0.00 0.00 55 1016.2
20210729051331 78 294 0.0 3.0 0.00 0.00 0.00 55 1016.2
20210729050830 78 294 1.0 3.0 0.00 0.00 0.00 55 1016.2
20210729050329 79 294 0.0 1.0 0.00 0.00 0.00 55 1016.2
20210729045827 79 294 0.0 2.0 0.00 0.00 0.00 55 1016.1
20210729045411 79 294 0.0 2.0 0.00 0.00 0.00 55 1016.1
20210729044842 80 294 0.0 2.0 0.00 0.00 0.00 54 1016.0
20210729044327 80 294 0.0 1.0 0.00 0.00 0.00 54 1016.0
20210729043830 80 294 0.0 1.0 0.00 0.00 0.00 54 1016.0
20210729043505 80 294 0.0 1.0 0.00 0.00 0.00 53 1015.9
20210729042901 81 294 0.0 2.0 0.00 0.00 0.00 53 1015.8
20210729042341 81 294 0.0 2.0 0.00 0.00 0.00 52 1015.8
20210729041841 81 294 0.0 1.0 0.00 0.00 0.00 52 1015.8
20210729041341 81 294 0.0 1.0 0.00 0.00 0.00 51 1015.6
20210729040839 82 294 0.0 1.0 0.00 0.00 0.00 49 1015.6
20210729040339 82 294 0.0 1.0 0.00 0.00 0.00 48 1015.5
20210729035838 82 294 0.0 1.0 0.00 0.00 0.00 48 1015.4
20210729035339 82 294 0.0 2.0 0.00 0.00 0.00 47 1015.4
20210729034838 82 294 1.0 2.0 0.00 0.00 0.00 46 1015.4
20210729034337 83 294 0.0 2.0 0.00 0.00 0.00 45 1015.3
20210729033836 83 294 0.0 1.0 0.00 0.00 0.00 45 1015.3
20210729033335 83 294 0.0 1.0 0.00 0.00 0.00 44 1015.2
20210729032841 83 294 0.0 1.0 0.00 0.00 0.00 43 1015.2
20210729032338 84 294 0.0 1.0 0.00 0.00 0.00 42 1015.2
20210729031827 84 294 0.0 2.0 0.00 0.00 0.00 41 1015.2
20210729031346 84 294 0.0 2.0 0.00 0.00 0.00 41 1015.3
20210729030842 84 294 0.0 2.0 0.00 0.00 0.00 39 1015.2
20210729030351 85 294 0.0 2.0 0.00 0.00 0.00 39 1015.2
20210729025839 85 294 0.0 2.0 0.00 0.00 0.00 38 1015.2
20210729025342 85 294 0.0 2.0 0.00 0.00 0.00 38 1015.2
20210729024841 85 294 0.0 2.0 0.00 0.00 0.00 38 1015.2
20210729024340 85 294 0.0 2.0 0.00 0.00 0.00 38 1015.2
20210729023838 86 294 0.0 3.0 0.00 0.00 0.00 38 1015.2
20210729023339 86 323 0.0 3.0 0.00 0.00 0.00 39 1015.1
20210729022856 86 323 0.0 2.0 0.00 0.00 0.00 39 1015.1
20210729022325 86 323 0.0 3.0 0.00 0.00 0.00 38 1015.1
20210729021827 87 323 0.0 3.0 0.00 0.00 0.00 38 1015.0
20210729021334 87 321 0.0 2.0 0.00 0.00 0.00 37 1015.0
20210729020835 87 321 0.0 2.0 0.00 0.00 0.00 37 1015.1
20210729020335 87 321 0.0 6.0 0.00 0.00 0.00 36 1015.0
20210729015833 87 321 1.0 6.0 0.00 0.00 0.00 36 1015.0
20210729015352 88 299 1.0 4.0 0.00 0.00 0.00 35 1015.0
20210729014842 88 310 1.0 3.0 0.00 0.00 0.00 35 1015.1
20210729014341 88 310 0.0 3.0 0.00 0.00 0.00 33 1015.1
20210729013840 89 300 0.0 3.0 0.00 0.00 0.00 31 1015.2
20210729013339 89 302 0.0 2.0 0.00 0.00 0.00 31 1015.2
20210729012837 89 302 0.0 3.0 0.00 0.00 0.00 30 1015.1
20210729012335 89 301 1.0 3.0 0.00 0.00 0.00 29 1015.2
20210729011838 89 300 0.0 3.0 0.00 0.00 0.00 28 1015.2
20210729011337 89 305 0.0 3.0 0.00 0.00 0.00 29 1015.2
20210729010836 89 300 0.0 2.0 0.00 0.00 0.00 30 1015.2
20210729010343 89 300 0.0 2.0 0.00 0.00 0.00 30 1015.3
20210729005844 88 300 0.0 2.0 0.00 0.00 0.00 30 1015.2
20210729005344 88 300 0.0 2.0 0.00 0.00 0.00 30 1015.3
20210729004849 88 299 1.0 2.0 0.00 0.00 0.00 29 1015.3
20210729004402 88 300 0.0 1.0 0.00 0.00 0.00 29 1015.3
20210729003836 88 300 0.0 1.0 0.00 0.00 0.00 29 1015.4
20210729003335 89 300 0.0 1.0 0.00 0.00 0.00 29 1015.4
20210729002828 89 299 0.0 1.0 0.00 0.00 0.00 28 1015.4
20210729002327 89 300 0.0 2.0 0.00 0.00 0.00 30 1015.5
20210729001846 89 300 0.0 2.0 0.00 0.00 0.00 30 1015.5
20210729001325 89 300 0.0 2.0 0.00 0.00 0.00 29 1015.6
20210729000827 89 300 0.0 3.0 0.00 0.00 0.00 29 1015.6
20210729000330 89 288 1.0 4.0 0.00 0.00 0.00 29 1015.7
20210728235828 89 312 0.0 3.0 0.00 0.00 0.00 30 1015.7
20210728235329 89 311 0.0 3.0 0.00 0.00 0.00 29 1015.8
20210728234833 89 311 1.0 3.0 0.00 0.00 0.00 30 1015.8
20210728234332 89 311 1.0 3.0 0.00 0.00 0.00 30 1015.8
20210728233832 89 310 0.0 3.0 0.00 0.00 0.00 29 1015.9
20210728233328 89 310 0.0 3.0 0.00 0.00 0.00 28 1016.0
20210728232824 89 296 0.0 2.0 0.00 0.00 0.00 30 1016.1
20210728232342 89 296 0.0 3.0 0.00 0.00 0.00 31 1016.1
20210728231822 89 296 2.0 3.0 0.00 0.00 0.00 30 1016.1
20210728231325 89 295 0.0 2.0 0.00 0.00 0.00 31 1016.1
20210728230824 89 295 0.0 2.0 0.00 0.00 0.00 31 1016.2
20210728230325 89 295 0.0 2.0 0.00 0.00 0.00 32 1016.2
20210728225827 89 295 0.0 3.0 0.00 0.00 0.00 32 1016.3
20210728225328 89 292 1.0 3.0 0.00 0.00 0.00 32 1016.3
20210728224827 89 288 1.0 3.0 0.00 0.00 0.00 33 1016.3
20210728224407 89 286 1.0 3.0 0.00 0.00 0.00 32 1016.3
20210728223825 90 284 0.0 3.0 0.00 0.00 0.00 33 1016.5
20210728223325 90 279 0.0 4.0 0.00 0.00 0.00 32 1016.6
20210728222842 90 279 1.0 4.0 0.00 0.00 0.00 32 1016.6
20210728222342 90 291 1.0 4.0 0.00 0.00 0.00 33 1016.6
20210728221822 91 309 1.0 3.0 0.00 0.00 0.00 32 1016.6
20210728221325 91 316 0.0 3.0 0.00 0.00 0.00 31 1016.7
20210728220832 91 317 0.0 3.0 0.00 0.00 0.00 32 1016.8
20210728220332 92 308 1.0 3.0 0.00 0.00 0.00 33 1016.8
20210728215833 92 308 0.0 1.0 0.00 0.00 0.00 32 1016.9
20210728215332 92 308 0.0 4.0 0.00 0.00 0.00 31 1017.0
20210728214833 91 308 1.0 4.0 0.00 0.00 0.00 31 1017.1
20210728214333 91 307 0.0 2.0 0.00 0.00 0.00 34 1017.0
20210728213835 90 307 0.0 3.0 0.00 0.00 0.00 34 1017.1
20210728213338 90 307 1.0 3.0 0.00 0.00 0.00 32 1017.2
20210728212841 91 12 1.0 4.0 0.00 0.00 0.00 35 1017.2
20210728212337 91 299 1.0 4.0 0.00 0.00 0.00 36 1017.3
20210728211824 90 331 0.0 3.0 0.00 0.00 0.00 36 1017.3
20210728211325 89 331 1.0 3.0 0.00 0.00 0.00 36 1017.3
20210728210827 89 300 1.0 3.0 0.00 0.00 0.00 36 1017.4
20210728210347 88 298 0.0 3.0 0.00 0.00 0.00 38 1017.4
20210728205823 88 276 1.0 3.0 0.00 0.00 0.00 39 1017.6
20210728205325 87 274 0.0 3.0 0.00 0.00 0.00 38 1017.6
20210728204825 87 298 2.0 4.0 0.00 0.00 0.00 38 1017.6
20210728204327 87 294 1.0 3.0 0.00 0.00 0.00 40 1017.7
20210728203831 87 272 1.0 3.0 0.00 0.00 0.00 41 1017.7
20210728203335 87 283 1.0 3.0 0.00 0.00 0.00 39 1017.8
20210728202836 88 317 0.0 2.0 0.00 0.00 0.00 41 1017.9
20210728202333 88 317 0.0 3.0 0.00 0.00 0.00 41 1018.0
20210728201833 87 304 1.0 3.0 0.00 0.00 0.00 43 1018.0
20210728201329 87 304 0.0 3.0 0.00 0.00 0.00 43 1018.0
20210728200827 87 296 1.0 3.0 0.00 0.00 0.00 42 1018.1
20210728200326 87 293 0.0 3.0 0.00 0.00 0.00 43 1018.1
20210728195826 87 294 0.0 3.0 0.00 0.00 0.00 44 1018.1
20210728195326 87 287 1.0 3.0 0.00 0.00 0.00 44 1018.2
20210728194828 87 294 1.0 3.0 0.00 0.00 0.00 45 1018.3
20210728194328 87 234 0.0 2.0 0.00 0.00 0.00 45 1018.3
20210728193829 86 250 0.0 1.0 0.00 0.00 0.00 47 1018.4
20210728193329 86 258 0.0 3.0 0.00 0.00 0.00 46 1018.5
20210728192828 86 298 2.0 4.0 0.00 0.00 0.00 47 1018.5
20210728192338 86 304 1.0 4.0 0.00 0.00 0.00 47 1018.5
20210728191842 86 261 0.0 0.0 0.00 0.00 0.00 47 1018.5
20210728191341 85 1 0.0 2.0 0.00 0.00 0.00 48 1018.5
20210728190919 85 1 0.0 2.0 0.00 0.00 0.00 49 1018.6
20210728190330 84 331 0.0 2.0 0.00 0.00 0.00 50 1018.7
20210728185830 83 340 0.0 2.0 0.00 0.00 0.00 51 1018.7
20210728185326 82 351 0.0 2.0 0.00 0.00 0.00 53 1018.8
20210728184825 81 348 0.0 2.0 0.00 0.00 0.00 54 1018.8
20210728184327 81 300 0.0 2.0 0.00 0.00 0.00 54 1018.8
20210728183830 81 300 0.0 3.0 0.00 0.00 0.00 54 1018.9
20210728183334 81 309 1.0 3.0 0.00 0.00 0.00 54 1019.0
20210728182831 81 309 1.0 3.0 0.00 0.00 0.00 55 1019.0
20210728182332 80 67 0.0 2.0 0.00 0.00 0.00 56 1019.0
20210728181831 80 188 0.0 2.0 0.00 0.00 0.00 56 1019.0
20210728181334 79 154 1.0 2.0 0.00 0.00 0.00 55 1019.0
20210728180838 80 267 0.0 2.0 0.00 0.00 0.00 56 1019.1
20210728180335 79 263 0.0 2.0 0.00 0.00 0.00 57 1019.1
20210728175832 79 236 0.0 3.0 0.00 0.00 0.00 57 1019.1
20210728175327 78 12 0.0 3.0 0.00 0.00 0.00 58 1019.2
20210728174828 77 290 1.0 2.0 0.00 0.00 0.00 59 1019.2
20210728174327 77 290 0.0 2.0 0.00 0.00 0.00 60 1019.2
20210728173827 77 291 0.0 2.0 0.00 0.00 0.00 61 1019.1
20210728173327 76 291 0.0 2.0 0.00 0.00 0.00 62 1019.1
20210728172338 74 296 1.0 3.0 0.00 0.00 0.00 64 1019.3
20210728171838 74 282 0.0 2.0 0.00 0.00 0.00 65 1019.3
20210728171341 73 282 0.0 1.0 0.00 0.00 0.00 66 1019.3
20210728170840 73 282 0.0 1.0 0.00 0.00 0.00 65 1019.4
20210728170344 72 282 0.0 2.0 0.00 0.00 0.00 68 1019.4
20210728165842 71 282 0.0 1.0 0.00 0.00 0.00 70 1019.5
20210728165340 71 282 0.0 2.0 0.00 0.00 0.00 69 1019.6
20210728164840 71 282 0.0 2.0 0.00 0.00 0.00 70 1019.5
20210728164322 70 279 0.0 0.0 0.00 0.00 0.00 70 1019.6
20210728163824 70 279 0.0 0.0 0.00 0.00 0.00 73 1019.6
20210728163344 69 279 0.0 0.0 0.00 0.00 0.00 71 1019.6
20210728162822 69 281 0.0 0.0 0.00 0.00 0.00 74 1019.5
20210728162327 68 281 0.0 0.0 0.00 0.00 0.00 74 1019.5
20210728161827 68 303 0.0 0.0 0.00 0.00 0.00 75 1019.5
20210728161330 67 303 0.0 0.0 0.00 0.00 0.00 76 1019.6
20210728160828 67 303 0.0 0.0 0.00 0.00 0.00 76 1019.5
20210728160327 66 303 0.0 0.0 0.00 0.00 0.00 79 1019.4
20210728155826 65 303 0.0 0.0 0.00 0.00 0.00 82 1019.6
20210728155325 64 303 0.0 0.0 0.00 0.00 0.00 82 1019.5
20210728154824 63 303 0.0 0.0 0.00 0.00 0.00 83 1019.4
20210728154327 63 303 0.0 0.0 0.00 0.00 0.00 83 1019.5
20210728153829 62 303 0.0 0.0 0.00 0.00 0.00 83 1019.4
20210728153350 62 303 0.0 0.0 0.00 0.00 0.00 83 1019.4
20210728152902 62 303 0.0 0.0 0.00 0.00 0.00 84 1019.4
20210728152335 62 303 0.0 0.0 0.00 0.00 0.00 84 1019.5
20210728151827 62 303 0.0 0.0 0.00 0.00 0.00 85 1019.5
20210728151325 61 303 0.0 0.0 0.00 0.00 0.00 85 1019.5
20210728150849 61 303 0.0 0.0 0.00 0.00 0.00 86 1019.4
20210728150338 61 303 0.0 0.0 0.00 0.00 0.00 86 1019.5
20210728145837 61 303 0.0 0.0 0.00 0.00 0.00 86 1019.5
20210728145337 60 303 0.0 0.0 0.00 0.00 0.00 87 1019.5
20210728144839 60 303 0.0 0.0 0.00 0.00 0.00 87 1019.4
20210728144337 60 303 0.0 0.0 0.00 0.00 0.00 87 1019.4
20210728143837 60 303 0.0 0.0 0.00 0.00 0.00 88 1019.4
20210728143337 59 303 0.0 0.0 0.00 0.00 0.00 88 1019.4
20210728142839 59 303 0.0 0.0 0.00 0.00 0.00 88 1019.4
20210728142338 59 303 0.0 0.0 0.00 0.00 0.00 88 1019.5
20210728141841 59 303 0.0 0.0 0.00 0.00 0.00 88 1019.6
20210728141359 59 303 0.0 0.0 0.00 0.00 0.00 89 1019.6
20210728140900 59 303 0.0 0.0 0.00 0.00 0.00 89 1019.4
20210728140326 58 303 0.0 0.0 0.00 0.00 0.00 89 1019.4
20210728135828 58 303 0.0 0.0 0.00 0.00 0.00 89 1019.4
20210728135328 58 303 0.0 0.0 0.00 0.00 0.00 89 1019.4
20210728134911 58 303 0.0 0.0 0.00 0.00 0.00 89 1019.4
20210728134324 58 303 0.0 0.0 0.00 0.00 0.00 89 1019.4
20210728133826 58 303 0.0 0.0 0.00 0.00 0.00 89 1019.4
20210728133334 58 303 0.0 0.0 0.00 0.00 0.00 88 1019.3
20210728132833 58 303 0.0 0.0 0.00 0.00 0.00 88 1019.3
20210728132335 58 303 0.0 0.0 0.00 0.00 0.00 88 1019.2
20210728131833 58 303 0.0 0.0 0.00 0.00 0.00 88 1019.2
20210728131333 58 303 0.0 0.0 0.00 0.00 0.00 87 1019.2
20210728130838 58 303 0.0 0.0 0.00 0.00 0.00 87 1019.3
20210728130338 58 303 0.0 0.0 0.00 0.00 0.00 88 1019.3
20210728125840 58 303 0.0 0.0 0.00 0.00 0.00 87 1019.2
20210728125337 59 303 0.0 0.0 0.00 0.00 0.00 87 1019.3
20210728124826 59 303 0.0 0.0 0.00 0.00 0.00 87 1019.2
20210728124346 59 303 0.0 0.0 0.00 0.00 0.00 87 1019.2
20210728123903 59 303 0.0 0.0 0.00 0.00 0.00 87 1019.1
20210728123358 59 303 0.0 0.0 0.00 0.00 0.00 87 1019.1
20210728122838 59 303 0.0 0.0 0.00 0.00 0.00 87 1019.1
20210728122329 59 303 0.0 0.0 0.00 0.00 0.00 87 1019.0
20210728121827 59 303 0.0 0.0 0.00 0.00 0.00 87 1019.0
20210728121326 59 303 0.0 0.0 0.00 0.00 0.00 86 1019.0
20210728120329 59 303 0.0 0.0 0.00 0.00 0.00 86 1019.0
20210728115827 59 303 0.0 0.0 0.00 0.00 0.00 86 1019.0
20210728115328 60 303 0.0 0.0 0.00 0.00 0.00 85 1018.9
20210728114828 60 303 0.0 0.0 0.00 0.00 0.00 85 1018.9
20210728114334 60 303 0.0 0.0 0.00 0.00 0.00 85 1018.9
20210728113832 60 303 0.0 0.0 0.00 0.00 0.00 85 1018.8
20210728113355 60 303 0.0 0.0 0.00 0.00 0.00 85 1018.8
20210728112824 60 303 0.0 0.0 0.00 0.00 0.00 85 1018.8
20210728112326 60 303 0.0 0.0 0.00 0.00 0.00 85 1018.7
20210728111826 60 303 0.0 0.0 0.00 0.00 0.00 85 1018.7
20210728111328 61 303 0.0 0.0 0.00 0.00 0.00 85 1018.7
20210728110827 61 303 0.0 0.0 0.00 0.00 0.00 84 1018.7
20210728110327 61 303 0.0 0.0 0.00 0.00 0.00 84 1018.7
20210728105830 61 303 0.0 0.0 0.00 0.00 0.00 84 1018.7
20210728105331 61 303 0.0 0.0 0.00 0.00 0.00 84 1018.7
20210728104834 61 303 0.0 0.0 0.00 0.00 0.00 84 1018.7
20210728104333 61 303 0.0 0.0 0.00 0.00 0.00 83 1018.7
20210728103836 61 303 0.0 0.0 0.00 0.00 0.00 83 1018.8
20210728103335 61 303 0.0 0.0 0.00 0.00 0.00 83 1018.7
20210728102832 62 303 0.0 0.0 0.00 0.00 0.00 82 1018.7
20210728102333 62 303 0.0 0.0 0.00 0.00 0.00 82 1018.7
20210728101837 62 303 0.0 0.0 0.00 0.00 0.00 82 1018.7
20210728101326 62 303 0.0 0.0 0.00 0.00 0.00 81 1018.7
20210728100846 62 303 0.0 0.0 0.00 0.00 0.00 81 1018.7
20210728100344 62 303 0.0 0.0 0.00 0.00 0.00 81 1018.7
20210728095827 63 303 0.0 0.0 0.00 0.00 0.00 80 1018.8
20210728095327 63 303 0.0 0.0 0.00 0.00 0.00 80 1018.7
20210728094846 63 303 0.0 0.0 0.00 0.00 0.00 80 1018.7
20210728094355 63 303 0.0 0.0 0.00 0.00 0.00 80 1018.7
20210728093848 63 303 0.0 0.0 0.00 0.00 0.00 80 1018.7
20210728093350 63 303 0.0 0.0 0.00 0.00 0.00 79 1018.7
20210728092839 63 303 0.0 0.0 0.00 0.00 0.00 79 1018.7
20210728092342 63 303 0.0 0.0 0.00 0.00 0.00 79 1018.6
20210728091841 64 303 0.0 0.0 0.00 0.00 0.00 78 1018.6
20210728091339 64 303 0.0 0.0 0.00 0.00 0.00 78 1018.6
20210728090842 64 303 0.0 0.0 0.00 0.00 0.00 78 1018.6
20210728090341 64 303 0.0 0.0 0.00 0.00 0.00 78 1018.7
20210728085839 64 303 0.0 0.0 0.00 0.00 0.00 77 1018.7
20210728085337 64 303 0.0 0.0 0.00 0.00 0.00 77 1018.7
20210728084836 65 303 0.0 0.0 0.00 0.00 0.00 77 1018.7
20210728084339 65 303 0.0 0.0 0.00 0.00 0.00 76 1018.7
20210728083837 65 303 0.0 0.0 0.00 0.00 0.00 76 1018.7
20210728083335 65 303 0.0 0.0 0.00 0.00 0.00 76 1018.8
20210728082852 65 303 0.0 0.0 0.00 0.00 0.00 76 1018.8
20210728082339 65 303 0.0 0.0 0.00 0.00 0.00 75 1018.8
20210728081839 65 303 0.0 0.0 0.00 0.00 0.00 75 1018.8
20210728081418 66 303 0.0 0.0 0.00 0.00 0.00 75 1018.8
20210728080832 66 303 0.0 0.0 0.00 0.00 0.00 74 1018.7
20210728080336 66 303 0.0 0.0 0.00 0.00 0.00 74 1018.6
20210728075833 66 303 0.0 0.0 0.00 0.00 0.00 74 1018.6
20210728075333 66 303 0.0 0.0 0.00 0.00 0.00 73 1018.5
20210728074834 66 303 0.0 0.0 0.00 0.00 0.00 73 1018.5
20210728074335 67 303 0.0 0.0 0.00 0.00 0.00 73 1018.5
20210728073837 67 303 0.0 0.0 0.00 0.00 0.00 73 1018.5
20210728073337 67 303 0.0 0.0 0.00 0.00 0.00 72 1018.5
20210728072839 67 303 0.0 0.0 0.00 0.00 0.00 72 1018.5
20210728072323 67 303 0.0 0.0 0.00 0.00 0.00 71 1018.4
20210728071825 67 303 0.0 0.0 0.00 0.00 0.00 71 1018.4
20210728071328 68 303 0.0 0.0 0.00 0.00 0.00 71 1018.4
20210728070834 68 303 0.0 0.0 0.00 0.00 0.00 71 1018.4
20210728070333 68 303 0.0 0.0 0.00 0.00 0.00 71 1018.3
20210728065911 68 303 0.0 0.0 0.00 0.00 0.00 70 1018.2
20210728065405 68 303 0.0 0.0 0.00 0.00 0.00 70 1018.2
20210728064842 68 303 0.0 0.0 0.00 0.00 0.00 70 1018.2
20210728064342 69 303 0.0 0.0 0.00 0.00 0.00 69 1018.3